This is the latest recevied weather packets stored in our database for station/object KM4KMS. If no packets are shown the sender has not sent any weather packets the latest 10 day(s).
| Time | Temp. | Humidity | Pressure | Rain* | Wind** | Luminosity | Snow |
|---|---|---|---|---|---|---|---|
| 1777496492 | 18.89° C | 71% | 1010.5 hPa | 0 mm | - | 380 W/m² | - |
| 1777496188 | 18.89° C | 69% | 1010.5 hPa | 0 mm | - | 490 W/m² | - |
| 1777495884 | 18.33° C | 70% | 1010.1 hPa | 0 mm | - | 292 W/m² | - |
| 1777495580 | 18.89° C | 72% | 1010.4 hPa | 0 mm | - | 558 W/m² | - |
| 1777495276 | 18.33° C | 72% | 1010.4 hPa | 0 mm | - | 200 W/m² | - |
| 1777494974 | 18.33° C | 72% | 1010.2 hPa | 0 mm | - | 199 W/m² | - |
| 1777494671 | 18.89° C | 69% | 1010.2 hPa | 0 mm | - | 168 W/m² | - |
| 1777494368 | 18.33° C | 74% | 1010.6 hPa | 0 mm | - | 603 W/m² | - |
| 1777494065 | 18.33° C | 74% | 1010.7 hPa | 0 mm | - | 386 W/m² | - |
| 1777493763 | 17.78° C | 74% | 1010.9 hPa | 0 mm | - | 712 W/m² | - |
| 1777493461 | 17.22° C | 77% | 1010.8 hPa | 0 mm | - | 284 W/m² | - |
| 1777493155 | 17.78° C | 76% | 1010.7 hPa | 0 mm | - | 225 W/m² | - |
| 1777492853 | 17.78° C | 76% | 1010.6 hPa | 0 mm | - | 266 W/m² | - |
| 1777492549 | 18.33° C | 77% | 1010.7 hPa | 0 mm | - | 161 W/m² | - |
| 1777492245 | 17.78° C | 74% | 1010.6 hPa | 0 mm | - | 308 W/m² | - |
| 1777491943 | 18.33° C | 73% | 1010.7 hPa | 0 mm | - | 620 W/m² | - |
| 1777491638 | 17.78° C | 75% | 1010.7 hPa | 0 mm | - | 731 W/m² | - |
| 1777491337 | 17.22° C | 76% | 1010.7 hPa | 0 mm | - | 312 W/m² | - |
| 1777491033 | 18.33° C | 75% | 1010.8 hPa | 0 mm | - | 248 W/m² | - |
| 1777490729 | 17.78° C | 77% | 1010.7 hPa | 0 mm | - | 899 W/m² | - |
| 1777490426 | 17.78° C | 81% | 1010.4 hPa | 0 mm | - | 330 W/m² | - |
| 1777490122 | 17.78° C | 75% | 1010.6 hPa | 0 mm | - | 717 W/m² | - |
| 1777489820 | 17.22° C | 79% | 1010.7 hPa | 0 mm | - | 291 W/m² | - |
| 1777489517 | 17.22° C | 81% | 1010.7 hPa | 0 mm | - | 249 W/m² | - |
| 1777489214 | 17.22° C | 81% | 1010.7 hPa | 0 mm | - | 270 W/m² | - |
* Rain latest hour (hover to see other rain measurements)
** Current wind speed in m/s (hover to see current wind gust speed)